Regional Weather Roundup
Issued by NWS

Home | Current Version | Previous Version | Graphics & Text | Print | Product List | Glossary On
Versions: 1 2 3 4 5 6 7 8 9 10 11 12 13 14 15 16 17 18 19 20 21 22 23 24 25 26 27 28 29 30 31 32 33 34 35 36 37 38 39 40 41 42 43 44 45 46 47 48 49 50
000
ASUS43 KBIS 270659
RWRND

NORTH DAKOTA REGIONAL WEATHER ROUNDUP
NATIONAL WEATHER SERVICE BISMARCK ND
100 AM CST SAT DEC 27 2014

NOTE: "FAIR" INDICATES FEW OR NO CLOUDS BELOW 12,000 FEET WITH NO
SIGNIFICANT WEATHER AND/OR OBSTRUCTIONS TO VISIBILITY.


NDZ001>003-009>011-017-270800-
NORTHWEST NORTH DAKOTA

CITY           SKY/WX    TMP DP  RH WIND       PRES   REMARKS
WILLISTON      CLOUDY    21  17  84 W12       30.08F WCI   9
MINOT          FLURRIES  13   8  81 SE6       30.08F WCI   4
MINOT AFB      CLOUDY    12  10  92 SE7       30.08F WCI   2
$$

NDZ018>021-031>035-040>046-270800-
SOUTHWEST NORTH DAKOTA

CITY           SKY/WX    TMP DP  RH WIND       PRES   REMARKS
BISMARCK       CLOUDY     2  -1  88 CALM      30.18S
DICKINSON      CLOUDY    18  13  80 S8        30.06F WCI   8
GARRISON         N/A     18  14  84 S8        30.09F WCI   8
HETTINGER ARPT CLEAR      5   1  83 NW6       30.11F WCI  -6
$$

NDZ004>008-012>016-024-026-027-054-270800-
NORTHEAST NORTH DAKOTA

CITY           SKY/WX    TMP DP  RH WIND       PRES   REMARKS
GRAND FORKS    CLOUDY     4   1  88 NW5       30.21F WCI  -5
DEVILS LAKE    CLOUDY     0  -8  71 CALM      30.13F
$$

NDZ022-023-025-028>030-036>039-047>053-270800-
SOUTHEAST NORTH DAKOTA

CITY           SKY/WX    TMP DP  RH WIND       PRES   REMARKS
FARGO          CLEAR      6   0  76 NW8       30.20F WCI  -7
$$



USA.gov is the U.S. government's official web portal to all federal, state and local government web resources and services.